Вернуться в каталог

STARLINK-37329

АктивенСвязьVLEO
NORAD 69155·PAYLOAD·🇺🇸 United States

Запущен May 21, 2026 с Cape Canaveral Space Force Station

Loading…

Ближайшие Пролёты (ближайшие 24 часа)

TLE

СвежийSource: CelesTrak SupGP

Эпоха: Sep 15, 2026, 04:07 UTC

1 69155C 26111H   26258.17201389 -.00024627  00000+0 -72768-3 0  2584
2 69155  53.1579  90.8318 0001163  83.9585  68.3308 15.34400069    17

Отслеживайте STARLINK-37329 в реальном времени с AllMySat

Download on the App Store